sat.trackr.live / text

‹ back to catalog

STARLINK-33784

NORAD 63453 · 2025-069W

PAYLOAD ACTIVE UNKNOWN

§ Identity

Operator
Country
US
Launch date
2025-04-04
Launch site
AFWTR
Launch vehicle
Mass (kg)
RCS (m²)

Purposes: comms

External: N2YO · Heavens-Above · Gunter

§ Orbital elements

Epoch: 2026-09-20T21:09:16.480800Z

Period
93.85 min
Inclination
53.1587°
Eccentricity
0.0001325
Mean motion
15.34390314 rev/d
Perigee alt
461.8 km
Apogee alt
463.6 km
Semi-major
6,840.9 km
B*
4.4067e-4
RAAN
314.1157°
Arg perigee
89.9570°
Mean anomaly
270.1585°
Rev number
8,331

§ Raw data

STARLINK-337841 63453U 25069W   26263.88144075  .00014537  00000+0  44067-3 0  99922 63453  53.1587 314.1157 0001325  89.9570 270.1585 15.34390314 83319

JSON: /api/v1/satellites/63453 · /tle

For live sub-satellite position, see the globe view (requires WebGL).

§ Visibility from observer

Set your observer location to see the next 7 days of passes ≥ 10°. The values pass through the URL so the page stays shareable.

No JS? Fill the form by hand. The geolocation button needs JavaScript.